N72MB KPNE-KILG

Flight info

Callsign N72MB
Flight time 0h 15m
Altitude 14000
Route DCT MXE DCT
Aircraft SF50/L-SDGRWY/L

Departure

Time 2026-04-21 20:26
Airport Northeast Philadelphia Airport (KPNE)

Arrival

Time 2026-04-21 20:42
Airport Wilmington Airport (KILG)
Time Latitude Longitude Altitude Speed Heading
2026-04-21 20:23 40.09000 -75.00682 121 ft 0 kts 223°
2026-04-21 20:24 40.08995 -75.00682 119 ft 5 kts 135°
2026-04-21 20:24 40.08911 -75.00610 116 ft 18 kts 135°
2026-04-21 20:24 40.08939 -75.00504 115 ft 13 kts 43°
2026-04-21 20:25 40.08991 -75.00427 116 ft 12 kts 49°
2026-04-21 20:25 40.09056 -75.00331 118 ft 14 kts 47°
2026-04-21 20:25 40.09070 -75.00221 116 ft 14 kts 136°
2026-04-21 20:25 40.09004 -75.00192 118 ft 10 kts 226°
2026-04-21 20:26 40.08807 -75.00482 115 ft 78 kts 228°
2026-04-21 20:26 40.08365 -75.01151 371 ft 105 kts 232°
2026-04-21 20:26 40.07880 -75.01904 897 ft 116 kts 231°
2026-04-21 20:26 40.07387 -75.02725 1726 ft 114 kts 234°
2026-04-21 20:27 40.06938 -75.03639 2417 ft 126 kts 237°
2026-04-21 20:27 40.06528 -75.04697 3082 ft 135 kts 253°
2026-04-21 20:27 40.06302 -75.05936 3758 ft 147 kts 254°
2026-04-21 20:27 40.05996 -75.07254 4421 ft 156 kts 252°
2026-04-21 20:28 40.05673 -75.08629 5089 ft 161 kts 253°
2026-04-21 20:28 40.05344 -75.10052 5733 ft 167 kts 256°
2026-04-21 20:28 40.05005 -75.11510 6385 ft 168 kts 257°
2026-04-21 20:28 40.04659 -75.12976 7023 ft 170 kts 258°
2026-04-21 20:29 40.04314 -75.14447 7636 ft 170 kts 259°
2026-04-21 20:29 40.03966 -75.15916 8264 ft 169 kts 259°
2026-04-21 20:29 40.03622 -75.17374 8876 ft 167 kts 261°
2026-04-21 20:29 40.03282 -75.18814 9527 ft 165 kts 261°
2026-04-21 20:30 40.02948 -75.20222 10178 ft 161 kts 262°
2026-04-21 20:30 40.02622 -75.21600 10778 ft 157 kts 263°
2026-04-21 20:30 40.02306 -75.22942 11377 ft 153 kts 264°
2026-04-21 20:30 40.02005 -75.24245 11988 ft 147 kts 264°
2026-04-21 20:31 40.01708 -75.25497 12552 ft 144 kts 265°
2026-04-21 20:31 40.01415 -75.26751 13066 ft 145 kts 264°
2026-04-21 20:31 40.01118 -75.28004 13593 ft 145 kts 265°
2026-04-21 20:31 40.00823 -75.29261 14117 ft 146 kts 265°
2026-04-21 20:32 40.00623 -75.30117 14281 ft 156 kts 265°
2026-04-21 20:32 40.00288 -75.31594 14307 ft 183 kts 263°
2026-04-21 20:32 39.99882 -75.33303 14325 ft 211 kts 262°
2026-04-21 20:32 39.99418 -75.35245 14324 ft 236 kts 261°
2026-04-21 20:33 39.98883 -75.37364 14322 ft 256 kts 256°
2026-04-21 20:33 39.97915 -75.39435 14309 ft 276 kts 243°
2026-04-21 20:33 39.96809 -75.41514 14304 ft 281 kts 243°
2026-04-21 20:33 39.95693 -75.43617 14306 ft 284 kts 243°
2026-04-21 20:34 39.94570 -75.45747 14303 ft 286 kts 243°
2026-04-21 20:34 39.93440 -75.47889 14300 ft 287 kts 243°
2026-04-21 20:34 39.92306 -75.50029 14299 ft 287 kts 243°
2026-04-21 20:34 39.91178 -75.52160 14299 ft 286 kts 243°
2026-04-21 20:35 39.89988 -75.54240 14290 ft 291 kts 236°
2026-04-21 20:35 39.88468 -75.56016 14282 ft 299 kts 224°
2026-04-21 20:35 39.86653 -75.57399 14193 ft 307 kts 212°
2026-04-21 20:35 39.84699 -75.58238 13720 ft 283 kts 199°
2026-04-21 20:36 39.82811 -75.58553 13054 ft 265 kts 191°
2026-04-21 20:36 39.81019 -75.58735 12400 ft 251 kts 192°
2026-04-21 20:36 39.79319 -75.58945 11761 ft 241 kts 193°
2026-04-21 20:36 39.77676 -75.59146 11121 ft 235 kts 193°
2026-04-21 20:37 39.76067 -75.59335 10485 ft 229 kts 194°
2026-04-21 20:37 39.74662 -75.60022 9812 ft 207 kts 226°
2026-04-21 20:37 39.73893 -75.61410 9134 ft 186 kts 259°
2026-04-21 20:37 39.73946 -75.63014 8451 ft 174 kts 294°
2026-04-21 20:38 39.74752 -75.64118 7806 ft 176 kts 329°
2026-04-21 20:38 39.76009 -75.64288 7155 ft 190 kts
2026-04-21 20:38 39.77151 -75.63404 6508 ft 203 kts 42°
2026-04-21 20:38 39.77817 -75.61809 5946 ft 203 kts 73°
2026-04-21 20:39 39.77758 -75.59958 5422 ft 208 kts 102°
2026-04-21 20:39 39.77220 -75.58255 4867 ft 203 kts 128°
2026-04-21 20:39 39.76108 -75.57256 4308 ft 192 kts 166°
2026-04-21 20:39 39.74820 -75.57285 3751 ft 182 kts 196°
2026-04-21 20:40 39.73785 -75.58120 3203 ft 175 kts 225°
2026-04-21 20:40 39.72982 -75.59215 2719 ft 152 kts 220°
2026-04-21 20:40 39.72044 -75.59576 2108 ft 137 kts 184°
2026-04-21 20:40 39.71244 -75.59760 1582 ft 106 kts 194°
2026-04-21 20:41 39.70510 -75.59948 1068 ft 109 kts 188°
2026-04-21 20:41 39.69771 -75.60015 553 ft 103 kts 191°
2026-04-21 20:41 39.69086 -75.60130 176 ft 97 kts 188°
2026-04-21 20:41 39.68473 -75.60203 63 ft 74 kts 184°
2026-04-21 20:42 39.68061 -75.60249 71 ft 48 kts 178°
2026-04-21 20:42 39.67823 -75.60141 76 ft 24 kts 155°
2026-04-21 20:42 39.67767 -75.60070 75 ft 9 kts 55°
2026-04-21 20:42 39.67833 -75.59993 72 ft 18 kts 41°
2026-04-21 20:43 39.67915 -75.59901 75 ft 13 kts 41°
2026-04-21 20:43 39.67907 -75.59832 76 ft 6 kts 142°
2026-04-21 20:43 39.67910 -75.59828 73 ft 0 kts 336°